Location: Córrego Montividiu
(13.2496°S, 48.8603°W)
Time: 11:13:46
(UTC+00:00)

Cosmos 1812 Rocket - Pass Details

Date: 11 March 2026
Orbit: 599 x 624 km, 82.5° (Epoch: 22 April)

Event Time Altitude Azimuth Distance (km) Brightness Sun altitude
Rises 22:44:12 0° 350° (N) 2,829 7.0 -18.3°
Reaches altitude 10° 22:46:24 10° 346° (NNW) 1,935 6.2 -18.8°
Maximum altitude 22:50:38 62° 266° (W) 683 4.0 -19.9°
Drops below altitude 10° 22:54:56 10° 184° (S) 1,966 6.3 -20.9°
Sets 22:57:12 0° 181° (S) 2,880 7.1 -21.4°
